Year,Month,Day,Hour,Minute,Value (Times are PST for barometer in hPa)
2008,01,05,00,00,968.07
2008,01,05,00,01,968.07
2008,01,05,00,02,968.03
2008,01,05,00,03,968.07
2008,01,05,00,04,968.07
2008,01,05,00,05,968.03
2008,01,05,00,06,968.07
2008,01,05,00,07,968.04
2008,01,05,00,08,968.06
2008,01,05,00,09,968.03
2008,01,05,00,10,968.03
2008,01,05,00,11,968.03
2008,01,05,00,12,968.03
2008,01,05,00,13,968.00
2008,01,05,00,14,968.03
2008,01,05,00,15,968.00
2008,01,05,00,16,968.00
2008,01,05,00,17,968.00
2008,01,05,00,18,968.00
2008,01,05,00,19,968.00
2008,01,05,00,20,968.03
2008,01,05,00,21,968.04
2008,01,05,00,22,968.14
2008,01,05,00,23,968.15
2008,01,05,00,24,968.17
2008,01,05,00,25,968.14
2008,01,05,00,26,968.14
2008,01,05,00,27,968.17
2008,01,05,00,28,968.17
2008,01,05,00,29,968.14
2008,01,05,00,30,968.10
2008,01,05,00,31,968.14
2008,01,05,00,32,968.17
2008,01,05,00,33,968.27
2008,01,05,00,34,968.30
2008,01,05,00,35,968.30
2008,01,05,00,36,968.34
2008,01,05,00,37,968.37
2008,01,05,00,38,968.41
2008,01,05,00,39,968.44
2008,01,05,00,40,968.44
2008,01,05,00,41,968.47
2008,01,05,00,42,968.54
2008,01,05,00,43,968.61
2008,01,05,00,44,968.64
2008,01,05,00,45,968.57
2008,01,05,00,46,968.51
2008,01,05,00,47,968.47
2008,01,05,00,48,968.42
2008,01,05,00,49,968.24
2008,01,05,00,50,968.25
2008,01,05,00,51,968.37
2008,01,05,00,52,968.38
2008,01,05,00,53,968.44
2008,01,05,00,54,968.44
2008,01,05,00,55,968.44
2008,01,05,00,56,968.47
2008,01,05,00,57,968.51
2008,01,05,00,58,968.47
2008,01,05,00,59,968.54
2008,01,05,01,00,968.54
2008,01,05,01,01,968.58
2008,01,05,01,02,968.61
2008,01,05,01,03,968.59
2008,01,05,01,04,968.64
2008,01,05,01,05,968.61
2008,01,05,01,06,968.61
2008,01,05,01,07,968.58
2008,01,05,01,08,968.61
2008,01,05,01,09,968.68
2008,01,05,01,10,968.68
2008,01,05,01,11,968.51
2008,01,05,01,12,968.47
2008,01,05,01,13,968.44
2008,01,05,01,14,968.44
2008,01,05,01,15,968.47
2008,01,05,01,16,968.55
2008,01,05,01,17,968.61
2008,01,05,01,18,968.67
2008,01,05,01,19,968.58
2008,01,05,01,20,968.58
2008,01,05,01,21,968.61
2008,01,05,01,22,968.64
2008,01,05,01,23,968.71
2008,01,05,01,24,968.74
2008,01,05,01,25,968.78
2008,01,05,01,26,968.81
2008,01,05,01,27,968.85
2008,01,05,01,28,968.85
2008,01,05,01,29,968.88
2008,01,05,01,30,968.88
2008,01,05,01,31,968.91
2008,01,05,01,32,968.91
2008,01,05,01,33,968.91
2008,01,05,01,34,968.91
2008,01,05,01,35,968.98
2008,01,05,01,36,969.09
2008,01,05,01,37,969.16
2008,01,05,01,38,969.29
2008,01,05,01,39,969.29
2008,01,05,01,40,969.35
2008,01,05,01,41,969.39
2008,01,05,01,42,969.42
2008,01,05,01,43,969.42
2008,01,05,01,44,969.42
2008,01,05,01,45,969.42
2008,01,05,01,46,969.46
2008,01,05,01,47,969.42
2008,01,05,01,48,969.39
2008,01,05,01,49,969.42
2008,01,05,01,50,969.46
2008,01,05,01,51,969.49
2008,01,05,01,52,969.46
2008,01,05,01,53,969.52
2008,01,05,01,54,969.57
2008,01,05,01,55,969.63
2008,01,05,01,56,969.66
2008,01,05,01,57,969.76
2008,01,05,01,58,969.77
2008,01,05,01,59,969.90
2008,01,05,02,00,969.96
2008,01,05,02,01,969.96
2008,01,05,02,02,970.08
2008,01,05,02,03,970.17
2008,01,05,02,04,970.17
2008,01,05,02,05,970.23
2008,01,05,02,06,970.28
2008,01,05,02,07,970.40
2008,01,05,02,08,970.44
2008,01,05,02,09,970.38
2008,01,05,02,10,970.44
2008,01,05,02,11,970.27
2008,01,05,02,12,970.30
2008,01,05,02,13,970.30
2008,01,05,02,14,970.34
2008,01,05,02,15,970.34
2008,01,05,02,16,970.40
2008,01,05,02,17,970.40
2008,01,05,02,18,970.47
2008,01,05,02,19,970.64
2008,01,05,02,20,970.57
2008,01,05,02,21,970.61
2008,01,05,02,22,970.61
2008,01,05,02,23,970.67
2008,01,05,02,24,970.67
2008,01,05,02,25,970.78
2008,01,05,02,26,970.89
2008,01,05,02,27,970.98
2008,01,05,02,28,971.09
2008,01,05,02,29,971.22
2008,01,05,02,30,971.18
2008,01,05,02,31,971.18
2008,01,05,02,32,971.22
2008,01,05,02,33,971.28
2008,01,05,02,34,971.28
2008,01,05,02,35,971.32
2008,01,05,02,36,971.22
2008,01,05,02,37,971.28
2008,01,05,02,38,971.28
2008,01,05,02,39,971.39
2008,01,05,02,40,971.40
2008,01,05,02,41,971.56
2008,01,05,02,42,971.55
2008,01,05,02,43,971.46
2008,01,05,02,44,971.59
2008,01,05,02,45,971.59
2008,01,05,02,46,971.62
2008,01,05,02,47,971.60
2008,01,05,02,48,971.72
2008,01,05,02,49,971.62
2008,01,05,02,50,971.66
2008,01,05,02,51,971.73
2008,01,05,02,52,971.86
2008,01,05,02,53,971.89
2008,01,05,02,54,971.90
2008,01,05,02,55,972.00
2008,01,05,02,56,971.96
2008,01,05,02,57,971.96
2008,01,05,02,58,972.01
2008,01,05,02,59,972.06
2008,01,05,03,00,972.06
2008,01,05,03,01,972.16
2008,01,05,03,02,972.23
2008,01,05,03,03,972.16
2008,01,05,03,04,972.20
2008,01,05,03,05,972.21
2008,01,05,03,06,972.31
2008,01,05,03,07,972.37
2008,01,05,03,08,972.37
2008,01,05,03,09,972.37
2008,01,05,03,10,972.40
2008,01,05,03,11,972.46
2008,01,05,03,12,972.37
2008,01,05,03,13,972.43
2008,01,05,03,14,972.38
2008,01,05,03,15,972.47
2008,01,05,03,18,972.61
2008,01,05,03,19,972.64
2008,01,05,03,21,972.54
2008,01,05,03,24,972.61
2008,01,05,03,27,972.51
2008,01,05,03,28,972.64
2008,01,05,03,30,972.75
2008,01,05,03,31,972.92
2008,01,05,03,33,973.09
2008,01,05,03,36,973.20
2008,01,05,03,37,973.11
2008,01,05,03,39,973.16
2008,01,05,03,40,973.25
2008,01,05,03,42,973.25
2008,01,05,03,43,973.25
2008,01,05,03,45,973.38
2008,01,05,03,46,973.35
2008,01,05,03,48,973.35
2008,01,05,03,49,973.38
2008,01,05,03,51,973.45
2008,01,05,03,54,973.49
2008,01,05,03,55,973.49
2008,01,05,03,57,973.43
2008,01,05,03,58,973.53
2008,01,05,04,00,973.65
2008,01,05,04,03,973.69
2008,01,05,04,07,973.93
2008,01,05,04,08,973.97
2008,01,05,04,10,974.13
2008,01,05,04,11,974.10
2008,01,05,04,13,974.10
2008,01,05,04,14,974.32
2008,01,05,04,16,974.26
2008,01,05,04,17,974.30
2008,01,05,04,19,974.47
2008,01,05,04,20,974.43
2008,01,05,04,22,974.42
2008,01,05,04,25,974.50
2008,01,05,04,26,974.54
2008,01,05,04,27,974.54
2008,01,05,04,28,974.67
2008,01,05,04,29,974.70
2008,01,05,04,30,974.74
2008,01,05,04,31,974.81
2008,01,05,04,32,974.74
2008,01,05,04,33,974.81
2008,01,05,04,34,974.81
2008,01,05,04,35,974.81
2008,01,05,04,36,974.74
2008,01,05,04,37,974.81
2008,01,05,04,38,974.88
2008,01,05,04,39,974.97
2008,01,05,04,40,974.87
2008,01,05,04,41,974.84
2008,01,05,04,42,974.87
2008,01,05,04,43,974.84
2008,01,05,04,44,974.87
2008,01,05,04,45,974.85
2008,01,05,04,46,974.91
2008,01,05,04,47,974.81
2008,01,05,04,48,974.91
2008,01,05,04,49,974.91
2008,01,05,04,50,974.84
2008,01,05,04,51,974.85
2008,01,05,04,52,974.98
2008,01,05,04,53,974.94
2008,01,05,04,54,974.94
2008,01,05,04,55,975.02
2008,01,05,04,56,975.14
2008,01,05,04,57,975.08
2008,01,05,04,58,975.08
2008,01,05,04,59,975.04
2008,01,05,05,00,975.08
2008,01,05,05,01,975.11
2008,01,05,05,02,975.18
2008,01,05,05,03,975.21
2008,01,05,05,04,975.21
2008,01,05,05,05,975.21
2008,01,05,05,06,975.25
2008,01,05,05,07,975.25
2008,01,05,05,08,975.29
2008,01,05,05,09,975.38
2008,01,05,05,10,975.45
2008,01,05,05,11,975.48
2008,01,05,05,12,975.49
2008,01,05,05,13,975.62
2008,01,05,05,14,975.65
2008,01,05,05,15,975.65
2008,01,05,05,16,975.69
2008,01,05,05,17,975.75
2008,01,05,05,18,975.89
2008,01,05,05,19,975.82
2008,01,05,05,20,975.82
2008,01,05,05,21,975.89
2008,01,05,05,22,975.86
2008,01,05,05,23,975.82
2008,01,05,05,24,975.82
2008,01,05,05,25,975.86
2008,01,05,05,26,975.89
2008,01,05,05,27,975.89
2008,01,05,05,28,975.89
2008,01,05,05,29,975.92
2008,01,05,05,30,975.96
2008,01,05,05,31,975.97
2008,01,05,05,32,976.03
2008,01,05,05,33,976.03
2008,01,05,05,34,976.06
2008,01,05,05,35,976.06
2008,01,05,05,36,976.06
2008,01,05,05,37,976.09
2008,01,05,05,38,976.13
2008,01,05,05,39,976.16
2008,01,05,05,40,976.16
2008,01,05,05,41,976.16
2008,01,05,05,42,976.23
2008,01,05,05,43,976.23
2008,01,05,05,44,976.23
2008,01,05,05,45,976.30
2008,01,05,05,46,976.30
2008,01,05,05,47,976.33
2008,01,05,05,48,976.33
2008,01,05,05,49,976.23
2008,01,05,05,50,976.26
2008,01,05,05,51,976.16
2008,01,05,05,52,976.23
2008,01,05,05,53,976.23
2008,01,05,05,54,976.30
2008,01,05,05,55,976.24
2008,01,05,05,56,976.40
2008,01,05,05,57,976.43
2008,01,05,05,58,976.50
2008,01,05,05,59,976.53
2008,01,05,06,00,976.47
2008,01,05,06,01,976.47
2008,01,05,06,02,976.50
2008,01,05,06,03,976.40
2008,01,05,06,04,976.40
2008,01,05,06,05,976.43
2008,01,05,06,06,976.50
2008,01,05,06,07,976.47
2008,01,05,06,08,976.50
2008,01,05,06,09,976.53
2008,01,05,06,10,976.60
2008,01,05,06,11,976.63
2008,01,05,06,12,976.60
2008,01,05,06,13,976.67
2008,01,05,06,14,976.67
2008,01,05,06,15,976.70
2008,01,05,06,16,976.74
2008,01,05,06,17,976.71
2008,01,05,06,18,976.80
2008,01,05,06,19,976.87
2008,01,05,06,20,976.97
2008,01,05,06,21,977.01
2008,01,05,06,22,977.01
2008,01,05,06,23,977.01
2008,01,05,06,24,977.02
2008,01,05,06,25,977.10
2008,01,05,06,26,977.00
2008,01,05,06,27,976.91
2008,01,05,06,28,977.02
2008,01,05,06,29,977.11
2008,01,05,06,30,977.11
2008,01,05,06,31,977.14
2008,01,05,06,32,977.14
2008,01,05,06,33,977.18
2008,01,05,06,34,977.18
2008,01,05,06,35,977.24
2008,01,05,06,36,977.28
2008,01,05,06,37,977.32
2008,01,05,06,38,977.41
2008,01,05,06,39,977.45
2008,01,05,06,40,977.45
2008,01,05,06,41,977.53
2008,01,05,06,42,977.58
2008,01,05,06,43,977.58
2008,01,05,06,44,977.58
2008,01,05,06,45,977.58
2008,01,05,06,46,977.48
2008,01,05,06,47,977.48
2008,01,05,06,48,977.48
2008,01,05,06,49,977.48
2008,01,05,06,50,977.48
2008,01,05,06,51,977.62
2008,01,05,06,52,977.65
2008,01,05,06,53,977.68
2008,01,05,06,54,977.75
2008,01,05,06,55,977.79
2008,01,05,06,56,977.79
2008,01,05,06,57,977.85
2008,01,05,06,58,977.85
2008,01,05,06,59,977.99
2008,01,05,07,00,977.96
2008,01,05,07,01,977.99
2008,01,05,07,02,977.96
2008,01,05,07,03,978.02
2008,01,05,07,04,978.06
2008,01,05,07,05,978.12
2008,01,05,07,06,978.16
2008,01,05,07,07,978.16
2008,01,05,07,08,978.19
2008,01,05,07,09,978.16
2008,01,05,07,10,978.19
2008,01,05,07,11,978.26
2008,01,05,07,12,978.33
2008,01,05,07,13,978.36
2008,01,05,07,14,978.36
2008,01,05,07,15,978.36
2008,01,05,07,16,978.40
2008,01,05,07,17,978.43
2008,01,05,07,18,978.43
2008,01,05,07,19,978.40
2008,01,05,07,20,978.40
2008,01,05,07,21,978.43
2008,01,05,07,22,978.43
2008,01,05,07,23,978.43
2008,01,05,07,24,978.40
2008,01,05,07,25,978.44
2008,01,05,07,26,978.50
2008,01,05,07,27,978.53
2008,01,05,07,28,978.60
2008,01,05,07,29,978.60
2008,01,05,07,30,978.63
2008,01,05,07,31,978.63
2008,01,05,07,32,978.63
2008,01,05,07,33,978.67
2008,01,05,07,34,978.73
2008,01,05,07,35,978.67
2008,01,05,07,36,978.70
2008,01,05,07,37,978.73
2008,01,05,07,38,978.77
2008,01,05,07,39,978.77
2008,01,05,07,40,978.73
2008,01,05,07,41,978.70
2008,01,05,07,42,978.70
2008,01,05,07,43,978.77
2008,01,05,07,44,978.83
2008,01,05,07,45,978.73
2008,01,05,07,46,978.73
2008,01,05,07,47,978.80
2008,01,05,07,48,978.87
2008,01,05,07,49,978.87
2008,01,05,07,50,978.90
2008,01,05,07,51,978.90
2008,01,05,07,52,978.94
2008,01,05,07,53,978.94
2008,01,05,07,54,978.97
2008,01,05,07,55,978.97
2008,01,05,07,56,979.04
2008,01,05,07,57,979.04
2008,01,05,07,58,979.04
2008,01,05,07,59,979.01
2008,01,05,08,00,979.01
2008,01,05,08,01,979.07
2008,01,05,08,02,979.07
2008,01,05,08,03,979.14
2008,01,05,08,04,979.17
2008,01,05,08,05,979.17
2008,01,05,08,06,979.21
2008,01,05,08,07,979.21
2008,01,05,08,08,979.28
2008,01,05,08,09,979.28
2008,01,05,08,10,979.24
2008,01,05,08,11,979.34
2008,01,05,08,12,979.38
2008,01,05,08,13,979.45
2008,01,05,08,14,979.45
2008,01,05,08,15,979.48
2008,01,05,08,16,979.55
2008,01,05,08,17,979.55
2008,01,05,08,18,979.58
2008,01,05,08,19,979.65
2008,01,05,08,20,979.75
2008,01,05,08,21,979.72
2008,01,05,08,22,979.72
2008,01,05,08,23,979.68
2008,01,05,08,24,979.75
2008,01,05,08,25,979.78
2008,01,05,08,26,979.75
2008,01,05,08,27,979.82
2008,01,05,08,28,979.85
2008,01,05,08,29,979.90
2008,01,05,08,30,980.02
2008,01,05,08,31,979.95
2008,01,05,08,32,979.99
2008,01,05,08,33,980.02
2008,01,05,08,34,979.99
2008,01,05,08,35,980.00
2008,01,05,08,36,980.09
2008,01,05,08,37,980.09
2008,01,05,08,38,980.12
2008,01,05,08,39,980.12
2008,01,05,08,40,980.12
2008,01,05,08,41,980.12
2008,01,05,08,42,980.16
2008,01,05,08,43,980.19
2008,01,05,08,44,980.26
2008,01,05,08,45,980.22
2008,01,05,08,46,980.29
2008,01,05,08,47,980.36
2008,01,05,08,48,980.43
2008,01,05,08,49,980.43
2008,01,05,08,50,980.46
2008,01,05,08,51,980.46
2008,01,05,08,52,980.50
2008,01,05,08,53,980.53
2008,01,05,08,54,980.60
2008,01,05,08,55,980.63
2008,01,05,08,56,980.66
2008,01,05,08,57,980.73
2008,01,05,08,58,980.80
2008,01,05,08,59,980.77
2008,01,05,09,00,980.80
2008,01,05,09,01,980.83
2008,01,05,09,02,980.80
2008,01,05,09,03,980.94
2008,01,05,09,04,980.97
2008,01,05,09,05,980.97
2008,01,05,09,06,981.07
2008,01,05,09,07,981.10
2008,01,05,09,08,981.21
2008,01,05,09,09,981.14
2008,01,05,09,10,981.24
2008,01,05,09,11,981.31
2008,01,05,09,12,981.31
2008,01,05,09,13,981.44
2008,01,05,09,14,981.55
2008,01,05,09,15,981.51
2008,01,05,09,16,981.55
2008,01,05,09,17,981.55
2008,01,05,09,18,981.55
2008,01,05,09,19,981.58
2008,01,05,09,20,981.61
2008,01,05,09,21,981.68
2008,01,05,09,22,981.68
2008,01,05,09,23,981.68
2008,01,05,09,24,981.68
2008,01,05,09,25,981.71
2008,01,05,09,26,981.71
2008,01,05,09,27,981.75
2008,01,05,09,28,981.71
2008,01,05,09,29,981.68
2008,01,05,09,30,981.75
2008,01,05,09,31,981.78
2008,01,05,09,32,981.78
2008,01,05,09,33,981.78
2008,01,05,09,34,981.82
2008,01,05,09,35,981.85
2008,01,05,09,36,981.85
2008,01,05,09,37,981.91
2008,01,05,09,38,981.85
2008,01,05,09,39,981.85
2008,01,05,09,40,981.85
2008,01,05,09,41,981.85
2008,01,05,09,42,981.88
2008,01,05,09,43,981.95
2008,01,05,09,44,981.99
2008,01,05,09,45,981.99
2008,01,05,09,46,981.99
2008,01,05,09,47,981.99
2008,01,05,09,48,981.95
2008,01,05,09,49,981.99
2008,01,05,09,50,981.99
2008,01,05,09,51,982.02
2008,01,05,09,52,982.05
2008,01,05,09,53,982.09
2008,01,05,09,54,982.12
2008,01,05,09,55,982.19
2008,01,05,09,56,982.26
2008,01,05,09,57,982.22
2008,01,05,09,58,982.22
2008,01,05,09,59,982.22
2008,01,05,10,00,982.22
2008,01,05,10,01,982.26
2008,01,05,10,02,982.26
2008,01,05,10,03,982.27
2008,01,05,10,04,982.32
2008,01,05,10,05,982.36
2008,01,05,10,06,982.29
2008,01,05,10,07,982.32
2008,01,05,10,08,982.32
2008,01,05,10,09,982.29
2008,01,05,10,10,982.32
2008,01,05,10,11,982.39
2008,01,05,10,12,982.46
2008,01,05,10,13,982.46
2008,01,05,10,14,982.46
2008,01,05,10,15,982.46
2008,01,05,10,16,982.46
2008,01,05,10,17,982.43
2008,01,05,10,18,982.36
2008,01,05,10,19,982.43
2008,01,05,10,20,982.49
2008,01,05,10,21,982.53
2008,01,05,10,22,982.49
2008,01,05,10,23,982.49
2008,01,05,10,24,982.53
2008,01,05,10,25,982.53
2008,01,05,10,26,982.53
2008,01,05,10,27,982.53
2008,01,05,10,28,982.46
2008,01,05,10,29,982.49
2008,01,05,10,30,982.53
2008,01,05,10,31,982.59
2008,01,05,10,32,982.66
2008,01,05,10,33,982.66
2008,01,05,10,34,982.70
2008,01,05,10,35,982.66
2008,01,05,10,36,982.70
2008,01,05,10,37,982.70
2008,01,05,10,38,982.66
2008,01,05,10,39,982.70
2008,01,05,10,40,982.66
2008,01,05,10,41,982.73
2008,01,05,10,42,982.73
2008,01,05,10,43,982.73
2008,01,05,10,44,982.73
2008,01,05,10,45,982.76
2008,01,05,10,46,982.80
2008,01,05,10,47,982.73
2008,01,05,10,48,982.73
2008,01,05,10,49,982.76
2008,01,05,10,50,982.66
2008,01,05,10,51,982.76
2008,01,05,10,52,982.70
2008,01,05,10,53,982.73
2008,01,05,10,54,982.76
2008,01,05,10,55,982.73
2008,01,05,10,56,982.76
2008,01,05,10,57,982.80
2008,01,05,10,58,982.83
2008,01,05,10,59,982.87
2008,01,05,11,00,982.87
2008,01,05,11,01,982.87
2008,01,05,11,02,982.90
2008,01,05,11,03,982.93
2008,01,05,11,04,982.93
2008,01,05,11,05,982.93
2008,01,05,11,06,982.90
2008,01,05,11,07,982.90
2008,01,05,11,08,982.93
2008,01,05,11,09,982.90
2008,01,05,11,10,982.87
2008,01,05,11,11,982.93
2008,01,05,11,12,983.00
2008,01,05,11,13,983.04
2008,01,05,11,14,983.04
2008,01,05,11,15,983.00
2008,01,05,11,16,983.00
2008,01,05,11,17,983.00
2008,01,05,11,18,983.00
2008,01,05,11,19,982.97
2008,01,05,11,20,982.97
2008,01,05,11,21,982.97
2008,01,05,11,22,982.97
2008,01,05,11,23,982.97
2008,01,05,11,24,982.97
2008,01,05,11,25,982.97
2008,01,05,11,26,982.93
2008,01,05,11,27,982.90
2008,01,05,11,28,982.87
2008,01,05,11,29,982.87
2008,01,05,11,30,982.93
2008,01,05,11,31,982.87
2008,01,05,11,32,982.87
2008,01,05,11,33,982.87
2008,01,05,11,34,982.90
2008,01,05,11,35,982.97
2008,01,05,11,36,982.97
2008,01,05,11,37,983.00
2008,01,05,11,38,982.93
2008,01,05,11,39,983.00
2008,01,05,11,40,982.97
2008,01,05,11,41,983.00
2008,01,05,11,42,982.97
2008,01,05,11,43,983.04
2008,01,05,11,44,983.00
2008,01,05,11,45,982.97
2008,01,05,11,46,982.97
2008,01,05,11,47,983.00
2008,01,05,11,48,983.04
2008,01,05,11,49,983.00
2008,01,05,11,50,983.07
2008,01,05,11,51,983.10
2008,01,05,11,52,983.10
2008,01,05,11,53,983.10
2008,01,05,11,54,983.20
2008,01,05,11,55,983.17
2008,01,05,11,56,983.14
2008,01,05,11,57,983.27
2008,01,05,11,58,983.27
2008,01,05,11,59,983.27
2008,01,05,12,00,983.31
2008,01,05,12,01,983.31
2008,01,05,12,02,983.34
2008,01,05,12,03,983.41
2008,01,05,12,04,983.41
2008,01,05,12,05,983.41
2008,01,05,12,06,983.37
2008,01,05,12,07,983.37
2008,01,05,12,08,983.41
2008,01,05,12,09,983.41
2008,01,05,12,10,983.41
2008,01,05,12,11,983.41
2008,01,05,12,12,983.44
2008,01,05,12,13,983.44
2008,01,05,12,14,983.44
2008,01,05,12,15,983.51
2008,01,05,12,16,983.54
2008,01,05,12,17,983.54
2008,01,05,12,18,983.58
2008,01,05,12,19,983.58
2008,01,05,12,20,983.58
2008,01,05,12,21,983.61
2008,01,05,12,22,983.64
2008,01,05,12,23,983.64
2008,01,05,12,24,983.59
2008,01,05,12,25,983.64
2008,01,05,12,26,983.64
2008,01,05,12,27,983.71
2008,01,05,12,28,983.75
2008,01,05,12,29,983.72
2008,01,05,12,30,983.78
2008,01,05,12,31,983.75
2008,01,05,12,32,983.75
2008,01,05,12,33,983.75
2008,01,05,12,34,983.72
2008,01,05,12,35,983.78
2008,01,05,12,36,983.78
2008,01,05,12,37,983.78
2008,01,05,12,38,983.78
2008,01,05,12,39,983.78
2008,01,05,12,40,983.78
2008,01,05,12,41,983.78
2008,01,05,12,42,983.85
2008,01,05,12,43,983.78
2008,01,05,12,44,983.81
2008,01,05,12,45,983.81
2008,01,05,12,46,983.85
2008,01,05,12,47,983.88
2008,01,05,12,48,983.85
2008,01,05,12,49,983.88
2008,01,05,12,50,983.85
2008,01,05,12,51,983.92
2008,01,05,12,52,983.85
2008,01,05,12,53,983.88
2008,01,05,12,54,983.88
2008,01,05,12,55,983.88
2008,01,05,12,56,983.88
2008,01,05,12,57,983.85
2008,01,05,12,58,983.92
2008,01,05,12,59,983.95
2008,01,05,13,00,983.95
2008,01,05,13,01,983.95
2008,01,05,13,02,983.92
2008,01,05,13,03,983.96
2008,01,05,13,04,984.05
2008,01,05,13,05,984.05
2008,01,05,13,06,984.02
2008,01,05,13,07,983.98
2008,01,05,13,08,984.02
2008,01,05,13,09,984.03
2008,01,05,13,10,984.12
2008,01,05,13,11,984.08
2008,01,05,13,12,984.08
2008,01,05,13,13,984.08
2008,01,05,13,14,984.12
2008,01,05,13,15,984.12
2008,01,05,13,16,984.15
2008,01,05,13,17,984.15
2008,01,05,13,18,984.19
2008,01,05,13,19,984.19
2008,01,05,13,20,984.15
2008,01,05,13,21,984.19
2008,01,05,13,22,984.25
2008,01,05,13,23,984.22
2008,01,05,13,24,984.22
2008,01,05,13,25,984.22
2008,01,05,13,26,984.29
2008,01,05,13,27,984.29
2008,01,05,13,28,984.22
2008,01,05,13,29,984.22
2008,01,05,13,30,984.22
2008,01,05,13,31,984.22
2008,01,05,13,32,984.29
2008,01,05,13,33,984.29
2008,01,05,13,34,984.32
2008,01,05,13,35,984.39
2008,01,05,13,36,984.36
2008,01,05,13,37,984.46
2008,01,05,13,38,984.36
2008,01,05,13,39,984.39
2008,01,05,13,40,984.42
2008,01,05,13,41,984.42
2008,01,05,13,42,984.46
2008,01,05,13,43,984.46
2008,01,05,13,44,984.42
2008,01,05,13,45,984.53
2008,01,05,13,46,984.53
2008,01,05,13,47,984.59
2008,01,05,13,48,984.59
2008,01,05,13,49,984.53
2008,01,05,13,50,984.53
2008,01,05,13,51,984.56
2008,01,05,13,52,984.53
2008,01,05,13,53,984.56
2008,01,05,13,54,984.53
2008,01,05,13,55,984.46
2008,01,05,13,56,984.53
2008,01,05,13,57,984.56
2008,01,05,13,58,984.59
2008,01,05,13,59,984.59
2008,01,05,14,00,984.59
2008,01,05,14,01,984.59
2008,01,05,14,02,984.59
2008,01,05,14,03,984.63
2008,01,05,14,04,984.66
2008,01,05,14,05,984.63
2008,01,05,14,06,984.63
2008,01,05,14,07,984.59
2008,01,05,14,08,984.59
2008,01,05,14,09,984.59
2008,01,05,14,10,984.66
2008,01,05,14,11,984.63
2008,01,05,14,12,984.66
2008,01,05,14,13,984.59
2008,01,05,14,14,984.63
2008,01,05,14,15,984.57
2008,01,05,14,16,984.63
2008,01,05,14,17,984.69
2008,01,05,14,18,984.73
2008,01,05,14,19,984.76
2008,01,05,14,20,984.73
2008,01,05,14,21,984.73
2008,01,05,14,22,984.73
2008,01,05,14,23,984.80
2008,01,05,14,24,984.83
2008,01,05,14,25,984.76
2008,01,05,14,26,984.73
2008,01,05,14,27,984.73
2008,01,05,14,28,984.69
2008,01,05,14,29,984.73
2008,01,05,14,30,984.83
2008,01,05,14,31,984.83
2008,01,05,14,32,984.80
2008,01,05,14,33,984.80
2008,01,05,14,34,984.86
2008,01,05,14,35,984.83
2008,01,05,14,36,984.83
2008,01,05,14,37,984.86
2008,01,05,14,38,984.86
2008,01,05,14,39,984.93
2008,01,05,14,40,984.90
2008,01,05,14,41,984.93
2008,01,05,14,42,984.93
2008,01,05,14,43,985.03
2008,01,05,14,44,985.01
2008,01,05,14,45,985.07
2008,01,05,14,46,985.03
2008,01,05,14,47,985.07
2008,01,05,14,48,985.13
2008,01,05,14,49,985.13
2008,01,05,14,50,985.10
2008,01,05,14,51,985.07
2008,01,05,14,52,985.10
2008,01,05,14,53,985.13
2008,01,05,14,54,985.20
2008,01,05,14,55,985.17
2008,01,05,14,56,985.20
2008,01,05,14,57,985.24
2008,01,05,14,58,985.27
2008,01,05,14,59,985.27
2008,01,05,15,00,985.34
2008,01,05,15,01,985.37
2008,01,05,15,02,985.37
2008,01,05,15,03,985.30
2008,01,05,15,04,985.37
2008,01,05,15,05,985.37
2008,01,05,15,06,985.37
2008,01,05,15,07,985.41
2008,01,05,15,08,985.44
2008,01,05,15,09,985.47
2008,01,05,15,10,985.51
2008,01,05,15,11,985.57
2008,01,05,15,12,985.51
2008,01,05,15,13,985.57
2008,01,05,15,14,985.51
2008,01,05,15,15,985.54
2008,01,05,15,16,985.64
2008,01,05,15,17,985.57
2008,01,05,15,18,985.68
2008,01,05,15,19,985.71
2008,01,05,15,20,985.71
2008,01,05,15,21,985.64
2008,01,05,15,22,985.71
2008,01,05,15,23,985.71
2008,01,05,15,24,985.71
2008,01,05,15,25,985.74
2008,01,05,15,26,985.74
2008,01,05,15,27,985.71
2008,01,05,15,28,985.74
2008,01,05,15,29,985.74
2008,01,05,15,30,985.74
2008,01,05,15,31,985.74
2008,01,05,15,32,985.78
2008,01,05,15,33,985.78
2008,01,05,15,34,985.81
2008,01,05,15,35,985.81
2008,01,05,15,36,985.85
2008,01,05,15,37,985.88
2008,01,05,15,38,985.81
2008,01,05,15,39,985.88
2008,01,05,15,40,985.96
2008,01,05,15,41,986.05
2008,01,05,15,42,985.98
2008,01,05,15,43,986.05
2008,01,05,15,44,986.12
2008,01,05,15,45,986.05
2008,01,05,15,46,986.05
2008,01,05,15,47,986.05
2008,01,05,15,48,986.05
2008,01,05,15,49,985.98
2008,01,05,15,50,986.05
2008,01,05,15,51,986.02
2008,01,05,15,52,985.98
2008,01,05,15,53,986.02
2008,01,05,15,54,986.05
2008,01,05,15,55,986.05
2008,01,05,15,56,986.08
2008,01,05,15,57,986.08
2008,01,05,15,58,986.05
2008,01,05,15,59,986.05
2008,01,05,16,00,986.02
2008,01,05,16,01,986.08
2008,01,05,16,02,986.12
2008,01,05,16,03,986.12
2008,01,05,16,04,986.12
2008,01,05,16,05,986.08
2008,01,05,16,06,986.02
2008,01,05,16,07,986.08
2008,01,05,16,08,986.18
2008,01,05,16,09,986.12
2008,01,05,16,10,986.09
2008,01,05,16,11,986.18
2008,01,05,16,12,986.25
2008,01,05,16,13,986.29
2008,01,05,16,14,986.29
2008,01,05,16,15,986.29
2008,01,05,16,16,986.32
2008,01,05,16,17,986.35
2008,01,05,16,18,986.39
2008,01,05,16,19,986.39
2008,01,05,16,20,986.46
2008,01,05,16,21,986.49
2008,01,05,16,22,986.49
2008,01,05,16,23,986.56
2008,01,05,16,24,986.49
2008,01,05,16,25,986.52
2008,01,05,16,26,986.52
2008,01,05,16,27,986.52
2008,01,05,16,28,986.52
2008,01,05,16,29,986.52
2008,01,05,16,30,986.52
2008,01,05,16,31,986.59
2008,01,05,16,32,986.59
2008,01,05,16,33,986.69
2008,01,05,16,34,986.66
2008,01,05,16,35,986.69
2008,01,05,16,36,986.66
2008,01,05,16,37,986.76
2008,01,05,16,38,986.62
2008,01,05,16,39,986.79
2008,01,05,16,40,986.79
2008,01,05,16,41,986.86
2008,01,05,16,42,986.79
2008,01,05,16,43,986.86
2008,01,05,16,44,986.86
2008,01,05,16,45,986.86
2008,01,05,16,46,986.93
2008,01,05,16,47,986.96
2008,01,05,16,48,986.96
2008,01,05,16,49,986.96
2008,01,05,16,50,987.00
2008,01,05,16,51,987.06
2008,01,05,16,52,987.03
2008,01,05,16,53,986.96
2008,01,05,16,54,986.96
2008,01,05,16,55,987.03
2008,01,05,16,56,987.03
2008,01,05,16,57,987.03
2008,01,05,16,58,987.10
2008,01,05,16,59,987.20
2008,01,05,17,00,987.23
2008,01,05,17,01,987.23
2008,01,05,17,02,987.13
2008,01,05,17,03,987.23
2008,01,05,17,04,987.30
2008,01,05,17,05,987.34
2008,01,05,17,06,987.40
2008,01,05,17,07,987.34
2008,01,05,17,08,987.34